Location: Bauerbach
(50.4985°N, 10.3912°E)
Time: 09:28:07
(UTC+00:00)

Lacrosse 5 rocket - Pass Details

Date: 13 January 2026
Orbit: 401 x 481 km, 57.0° (Epoch: 15 February)

Event Time Altitude Azimuth Distance (km) Brightness Sun altitude
Exits shadow 03:51:19 15° 55° (NE) 1,405 4.0 -31.5°
Drops below altitude 10° 03:52:01 10° 56° (ENE) 1,683 4.5 -31.4°
Sets 03:54:13 0° 59° (ENE) 2,569 5.6 -31.0°
